Location: Unspecified
(0.0000°N, 0.0000°E)
Time: 02:48:49
(UTC+02:00)

ARIANE 5 R/B - Visible Passes

Search period start: 21 August 2017 00:00
Search period end: 31 August 2017 00:00
Orbit: 570 x 35648 km, 7.4° (Epoch: 19 August)

Date Brightness Start Highest point End Pass type
(mag) Time Alt. Az. Time Alt. Az. Time Alt. Az.
21 Aug 8.3 02:07:24 42° E 02:07:24 42° E 11:39:35 10° E visible
22 Aug 12.7 05:25:52 10° E 06:52:18 15° E 07:49:07 10° E visible
23 Aug 6.5 07:05:58 14° W 08:49:34 63° WNW 17:00:15 10° E visible
24 Aug 7.8 04:17:23 77° WSW 04:24:14 89° S 14:02:09 10° E visible
25 Aug 8.6 01:28:49 30° E 01:28:49 30° E 10:55:06 10° E visible
25 Aug 5.3 22:06:44 10° WSW 22:07:45 18° SW 22:07:45 18° SW visible
27 Aug 6.8 06:27:24 25° W 08:05:28 71° WNW 16:19:01 10° E visible
28 Aug 7.9 03:38:49 85° ESE 03:38:49 85° ESE 13:20:04 10° E visible
29 Aug 8.8 00:50:15 19° E 00:50:15 19° E 10:09:23 10° E visible
29 Aug 4.0 21:25:05 10° WSW 21:28:13 30° S 21:28:24 30° S visible
